Wind_Speed
15 13 22 24 18 16 8 12 10 10 6 8 14 14 12 16 22 21 21 22 23 25 25 28 29 29 27 27 26 27 27 28 25 24 22 21 20 19 17 17 17 17 17 16
8 24 20 15 16 17 18 17 17 10 7 4 6 10 6 15 23 24 23 23 24 21 20 25 29 31 31 30 30 28 30 30 31 26 25 20 22 20 19 16 16 16 15 16
25 7 20 19 17 19 23 24 17 8 2 4 5 14 7 11 15 18 22 22 20 23 24 23 28 33 34 33 33 33 34 32 31 27 22 19 14 16 17 18 17 18 19 18
20 18 24 24 26 22 23 18 17 16 9 11 6 14 7 12 17 18 20 21 23 23 23 23 27 31 35 36 33 32 31 31 31 31 26 28 26 24 25 23 21 21 23 21
17 24 20 26 27 23 20 14 15 15 13 12 13 8 14 5 12 19 22 24 25 25 25 26 26 36 39 36 34 33 33 35 35 35 34 30 27 25 19 20 21 27 24 25
19 7 23 16 20 22 12 13 8 5 9 15 21 14 17 13 16 16 21 23 24 24 26 25 33 32 32 32 30 30 32 36 36 36 37 33 30 27 22 21 20 21 22 22
21 14 15 17 16 20 20 18 7 10 11 15 15 14 20 9 17 19 20 25 26 26 25 24 23 25 31 33 35 34 33 34 36 37 36 38 37 32 30 27 24 21 20 20
19 16 20 19 20 13 28 22 9 14 15 13 7 14 14 17 19 19 17 21 23 22 22 24 23 26 31 35 36 36 35 36 36 38 38 39 37 34 33 29 26 24 23 22
18 19 11 20 14 21 17 24 23 10 1 4 13 14 10 9 20 16 19 17 19 24 25 28 27 31 31 33 36 38 38 37 37 39 38 38 38 38 34 33 32 27 26 21
6 7 12 26 16 25 15 18 11 14 13 12 8 12 13 19 18 21 18 18 20 21 23 24 24 29 35 35 37 38 38 39 41 41 40 39 39 40 40 34 34 31 30 30
2 5 5 16 22 23 10 19 11 11 9 9 8 9 10 16 20 21 22 21 20 20 22 23 23 30 36 35 33 40 39 39 37 38 39 38 37 37 36 35 36 35 36 37
4 2 11 16 13 21 25 18 23 11 13 13 6 8 2 12 11 17 21 19 19 20 21 21 22 24 28 33 34 37 38 38 41 41 39 40 39 38 38 40 38 38 37 39
5 3 11 7 11 9 22 22 23 21 11 18 12 5 8 7 5 9 11 14 12 11 13 16 15 17 20 30 35 37 39 42 41 38 39 38 39 39 40 41 40 38 40 39
4 1 9 13 6 3 5 10 25 25 17 17 21 16 11 5 9 11 13 14 11 11 13 15 14 16 18 28 32 35 37 39 38 39 39 39 40 43 42 43 40 40 41 37
5 1 4 5 7 6 9 10 10 17 22 23 22 24 19 16 14 10 10 8 9 10 9 12 14 15 16 22 28 33 36 33 35 36 38 42 43 41 39 38 39 41 39 41
6 1 2 7 9 10 14 13 14 14 16 16 22 25 8 13 19 20 18 17 13 14 14 13 15 15 16 20 27 32 32 36 38 38 42 41 37 38 42 42 41 40 39 37
4 2 2 6 7 12 15 21 17 14 13 15 22 18 14 17 13 16 18 17 16 13 12 11 12 13 14 24 31 32 35 32 35 38 37 34 36 39 42 41 39 40 40 38
4 4 3 5 2 10 10 4 6 13 17 21 22 19 16 16 18 18 16 18 19 18 16 15 13 14 23 27 28 33 29 33 34 34 30 30 33 36 34 35 39 39 39 41
17 9 4 5 12 16 18 7 3 5 13 7 16 21 20 19 19 19 16 17 20 20 16 14 17 20 19 22 29 27 27 29 29 31 34 37 38 35 34 36 40 40 37 38
14 14 7 5 8 12 2 9 12 4 15 6 3 7 14 17 15 12 14 19 20 18 15 15 21 15 16 22 23 25 27 27 29 33 39 37 34 35 37 42 41 35 35 37
5 8 16 14 10 8 11 6 1 12 1 5 5 8 11 11 13 14 17 13 15 14 15 16 13 12 12 10 19 23 24 27 39 28 24 27 30 30 28 21 19 19 20 23
6 6 7 11 10 21 8 13 11 5 6 11 13 13 14 15 20 20 22 17 13 13 10 9 7 7 2 7 20 20 22 23 14 16 21 24 24 24 22 22 19 20 20 20
6 10 5 9 8 13 11 15 22 18 16 18 16 19 16 19 20 20 18 13 7 6 3 6 8 8 7 3 9 12 10 12 13 14 17 19 20 21 22 25 29 32 26 33
8 10 8 12 17 22 23 25 21 20 19 18 17 21 18 21 21 20 16 11 7 6 8 10 11 11 10 10 9 8 10 10 12 13 15 16 17 18 20 22 21 19 23 27
11 6 8 15 20 20 24 23 25 23 21 21 18 17 18 20 22 17 11 10 10 10 10 13 11 12 16 14 14 11 9 12 12 12 13 14 14 18 16 13 12 22 26 30
16 19 12 13 13 13 17 15 16 20 22 20 14 14 14 17 11 10 9 8 8 10 12 12 14 14 15 15 15 15 13 14 14 13 14 17 18 16 15 15 16 12 10 11
Wind_Direction
190 194 208 212 218 227 232 233 237 246 214 217 224 235 241 196 203 203 191 190 196 204 201 202 207 210 210 208 205 203 204 208 206 208 209 214 219 225 228 234 244 236 230 232
172 220 207 201 203 218 226 236 235 248 258 263 230 246 244 202 207 204 196 196 202 200 201 201 205 208 209 208 208 205 207 206 209 208 208 208 213 220 223 230 234 226 224 230
201 189 198 197 203 212 223 226 222 242 332 232 266 262 224 214 219 208 211 206 204 200 200 200 204 206 209 209 207 206 207 208 209 206 204 209 211 219 220 227 231 229 229 234
222 209 191 200 212 206 224 222 236 242 251 247 212 265 226 213 208 209 211 207 208 204 206 205 202 210 210 212 209 209 208 209 211 208 205 204 208 212 221 221 224 227 232 238
202 200 192 208 207 202 222 200 212 232 240 258 226 251 244 199 215 214 214 212 212 207 204 206 205 209 212 211 211 208 205 209 210 209 208 209 216 221 223 222 223 230 234 235
205 209 193 201 209 200 191 186 163 196 233 241 238 231 249 216 210 218 218 218 215 211 212 211 211 212 216 215 212 211 208 208 208 210 213 211 215 218 220 222 224 228 232 232
205 193 197 193 184 197 195 174 179 216 217 238 224 228 242 238 214 218 210 216 215 209 211 212 211 206 209 208 207 207 205 210 207 209 211 213 217 218 220 220 224 223 222 217
195 208 192 188 202 184 200 199 205 213 230 237 194 235 234 224 230 228 231 220 214 211 211 212 211 209 207 207 206 203 203 208 208 209 211 214 217 219 223 226 226 224 224 220
202 216 191 177 188 183 185 210 210 244 127 249 224 246 261 234 219 215 217 215 211 210 211 212 211 212 209 209 206 205 204 207 206 209 212 213 214 215 220 220 226 227 225 225
189 204 198 192 180 197 190 174 179 213 227 233 212 240 239 194 206 215 213 211 215 214 214 217 215 213 213 211 208 206 206 205 206 207 209 212 213 216 217 219 222 222 225 231
275 238 145 170 201 185 183 192 203 205 223 226 243 239 209 215 209 205 212 216 213 211 216 216 214 214 214 213 208 207 204 205 206 207 208 210 212 214 216 216 221 223 227 231
34 250 212 205 192 209 200 192 197 204 196 226 269 248 260 228 221 222 221 219 219 214 214 213 215 213 212 211 208 206 207 205 207 207 207 209 211 210 212 213 217 221 223 229
360 232 197 212 210 202 219 212 203 218 236 213 212 195 234 243 232 209 228 241 234 227 234 226 219 211 210 209 208 207 205 210 208 205 206 207 208 208 209 214 215 215 221 223
303 25 256 219 212 28 218 216 212 219 228 225 226 236 227 277 241 257 254 257 244 218 210 215 217 215 212 211 206 206 209 209 205 205 204 206 208 210 209 213 214 212 218 215
11 353 333 307 303 301 267 258 236 232 238 233 241 238 232 254 279 291 296 278 265 253 221 210 216 214 212 209 206 206 210 207 205 202 203 209 209 209 210 212 213 213 211 214
358 307 324 300 293 285 277 256 252 247 245 253 257 260 287 261 241 248 262 281 270 271 257 221 220 218 211 209 205 204 207 205 198 202 207 209 206 204 207 209 210 211 212 213
317 290 248 252 312 312 272 245 244 245 238 236 242 249 251 248 236 247 252 245 252 247 249 247 218 213 210 208 205 206 207 201 201 204 210 207 205 207 208 209 208 208 208 209
243 221 223 267 250 242 255 310 264 261 254 233 245 252 249 248 246 232 235 247 258 257 253 247 242 231 220 221 214 211 201 198 201 208 209 208 209 212 211 209 211 211 208 208
217 225 222 229 227 278 294 252 254 248 256 284 265 250 242 250 257 253 241 243 245 251 258 254 260 247 235 216 214 201 195 195 197 206 207 208 208 209 208 211 214 214 209 210
207 222 236 191 241 238 237 245 264 234 267 193 334 287 268 259 249 253 242 232 238 241 244 247 250 247 234 220 210 192 195 193 202 207 210 210 210 210 210 212 215 216 214 217
164 205 219 227 246 256 270 280 353 215 185 327 289 294 294 273 264 287 293 265 239 242 241 235 246 247 241 221 193 196 193 198 210 211 212 211 211 214 218 222 223 227 237 242
214 197 200 224 243 241 252 264 243 338 319 311 308 304 291 278 279 276 280 282 268 251 242 213 210 217 199 204 194 194 197 207 201 198 203 206 208 211 211 203 200 204 219 224
246 224 224 222 225 258 289 294 298 301 297 302 304 301 298 293 277 278 280 275 239 204 133 145 152 116 79 101 189 186 174 171 173 188 201 204 205 206 201 192 194 196 191 217
261 261 245 251 250 262 272 283 280 286 293 298 292 287 290 281 276 270 260 224 182 146 120 130 129 111 94 90 97 128 156 157 167 187 194 197 200 196 200 207 210 210 202 212
248 249 255 273 267 270 271 268 275 284 274 280 287 280 280 274 270 250 210 184 163 137 123 124 122 114 101 93 84 90 123 160 159 165 165 167 168 161 160 170 186 200 206 212
234 238 225 247 263 271 273 297 306 283 268 264 271 294 273 252 231 174 144 128 120 113 112 105 102 92 87 84 78 83 103 123 131 125 137 150 148 146 144 130 122 129 161 201
Height
742 751 749 749 752 750 754 756 754 741 738 743 744 742 734 739 741 746 752 759 763 764 769 779 785 791 796 798 801 804 808 812 818 822 825 829 832 835 837 838 840 841 843 845
749 740 735 741 750 753 755 756 752 744 740 744 741 741 734 734 734 735 744 751 754 760 766 772 778 784 788 791 794 799 801 806 810 816 820 824 827 831 833 836 837 839 841 843
727 724 730 741 748 754 750 750 749 752 745 739 742 742 740 733 732 734 735 740 748 751 756 763 770 775 780 784 786 790 794 800 804 811 817 821 825 827 829 832 834 836 839 841
726 718 728 735 740 743 752 742 747 753 759 764 739 756 743 731 735 733 734 737 737 742 750 754 761 767 771 773 779 785 791 796 800 805 811 814 816 819 822 826 830 833 836 838
713 717 727 733 725 732 740 737 746 748 752 753 748 759 728 733 736 730 726 725 729 730 738 744 748 752 758 766 772 777 783 789 794 798 803 808 812 815 819 822 825 828 832 834
700 702 711 714 718 724 727 739 746 751 750 766 744 751 726 727 723 716 715 717 721 726 728 734 740 748 755 762 768 773 777 780 787 792 797 802 806 810 814 817 820 823 826 829
704 707 701 702 722 722 726 738 765 775 769 752 726 747 722 704 702 696 702 706 707 712 720 725 732 739 745 751 756 762 768 773 778 783 789 794 798 803 807 811 815 818 821 824
707 725 698 691 700 717 723 726 739 763 747 742 735 734 710 691 689 686 687 688 696 707 712 717 721 728 734 739 745 751 757 763 770 775 780 785 791 797 800 805 810 813 816 818
693 696 679 684 688 697 720 724 709 731 747 746 718 707 696 689 684 684 685 687 691 693 698 703 708 715 721 729 736 741 746 752 760 765 772 777 782 787 792 796 801 806 810 813
680 697 677 680 682 688 700 701 737 728 752 752 720 720 700 689 686 679 680 682 681 682 688 693 698 703 709 716 724 732 738 742 747 754 761 767 772 777 782 788 792 797 802 806
691 684 692 680 683 688 704 704 705 707 715 723 726 700 674 677 670 671 668 667 669 673 677 680 685 691 698 707 715 718 726 733 740 747 752 757 763 769 775 780 784 789 793 798
703 692 687 683 666 663 674 687 694 711 725 711 704 696 663 661 660 660 658 655 658 662 664 670 675 682 691 697 703 708 715 723 726 733 742 746 753 758 764 768 773 779 783 789
705 702 695 690 679 675 677 676 682 683 685 707 718 695 655 662 663 659 660 658 662 666 667 667 671 675 679 684 690 696 702 707 715 724 730 737 741 747 751 757 762 768 773 778
709 708 693 678 681 698 699 686 675 679 690 692 688 682 669 662 663 660 659 655 655 659 661 663 667 668 671 675 681 686 692 697 704 712 718 724 729 733 738 744 752 757 762 769
715 712 710 707 706 704 704 700 694 691 677 680 674 673 672 667 661 656 650 652 655 656 657 658 660 660 663 668 673 678 682 691 697 703 708 710 714 723 730 736 741 745 751 755
724 717 717 710 702 699 699 692 691 689 686 684 676 672 660 655 656 654 652 650 653 651 647 649 652 655 657 659 663 668 674 679 686 691 693 699 708 713 717 722 728 735 741 747
731 723 719 713 704 699 695 674 679 678 675 676 678 666 656 658 660 658 653 649 647 644 642 642 644 646 648 650 652 658 661 672 678 681 686 694 699 702 704 710 718 722 727 735
732 730 723 712 713 715 661 656 664 666 658 655 655 654 651 648 642 641 642 644 638 635 634 635 636 639 639 640 645 646 656 662 669 676 683 688 692 693 700 706 707 711 716 720
731 728 720 714 703 682 671 665 664 667 659 653 649 645 641 639 637 636 632 631 631 627 624 625 626 627 629 633 635 642 649 655 662 667 671 673 676 684 691 696 697 700 707 710
726 730 724 714 707 693 662 656 649 665 671 650 656 652 645 638 647 638 623 621 620 619 620 619 617 622 623 622 629 635 640 647 651 653 654 662 670 675 679 679 685 694 699 701
728 729 724 718 707 681 667 662 660 675 661 652 651 651 651 652 636 626 614 615 614 612 611 613 615 616 616 621 624 629 634 637 633 645 656 661 664 670 678 689 696 701 709 715
711 716 717 718 711 701 665 661 671 656 648 648 647 645 646 644 635 632 623 617 614 610 608 608 610 612 614 618 620 623 625 628 639 644 649 654 660 666 673 679 685 692 703 709
715 703 701 697 682 677 668 672 661 655 658 649 649 639 641 636 631 626 620 615 611 610 608 608 611 613 614 617 618 621 625 630 634 639 644 649 654 660 667 669 670 668 676 705
704 701 700 694 680 676 673 663 664 662 656 647 646 640 638 635 624 618 616 613 613 612 610 611 614 615 617 619 619 621 624 626 630 637 641 646 651 655 660 663 665 668 673 679
702 701 695 687 682 680 672 669 662 660 654 645 639 637 632 626 612 609 609 614 612 613 613 614 617 617 617 620 620 622 623 626 631 635 639 642 648 651 655 659 662 665 667 670
697 691 689 670 670 674 667 662 658 654 648 641 639 634 626 615 608 608 614 612 614 616 618 619 623 622 621 621 621 623 623 626 630 634 636 639 642 648 652 655 660 664 666 667